Location: Newark
(42.8481°N, 0.4872°E)
Time: 12:30:21
(UTC+00:00)

A-11 Canister half - Pass Details

Date: 30 October 2020
Orbit: 1525 x 1684 km, 47.3° (Epoch: 01 December)

Event Time Altitude Azimuth Distance (km) Brightness Sun altitude
Rises 17:39:28 0° 285° (WNW) 4,736 12.9 -9.1°
Reaches altitude 10° 17:42:35 10° 287° (WNW) 3,735 12.1 -9.7°
Maximum altitude 17:52:00 73° 13° (NNE) 1,588 9.0 -11.4°
Enters shadow 18:00:10 15° 97° (E) 3,336 10.1 -12.9°
Drops below altitude 10° 18:01:17 10° 98° (E) 3,691 - -13.1°
Sets 18:04:21 0° 100° (E) 4,678 - -13.6°
